EGW15E EDDL-LGIR

Flight info

Callsign EGW15E
Flight time N/A
Altitude 37000
Route DODEN7Z DODEN Y853 BOMBI DCT DETEV DCT DINKU M867 XERUM DCT BAVAX DCT RADIZ DCT LUMUS DCT DOL DCT NIVES DCT NAVSU DCT PETAK DCT DIMIS UL604 PLH UM978 OTREX
Aircraft A20N/M-SDE2E3FGHIRWXY/LB1

Departure

Time 2026-05-07 16:02
Airport Düsseldorf Airport (EDDL)

Arrival

Time N/A
Airport Heraklion International Nikos Kazantzakis Airport (LGIR)
Time Latitude Longitude Altitude Speed Heading
2026-05-07 15:18 51.28389 6.77189 128 ft 0 kts 142°
2026-05-07 15:49 51.28392 6.77184 128 ft 2 kts 143°
2026-05-07 15:50 51.28404 6.77170 128 ft 2 kts 142°
2026-05-07 15:50 51.28416 6.77155 128 ft 2 kts 143°
2026-05-07 15:50 51.28430 6.77144 128 ft 2 kts 176°
2026-05-07 15:50 51.28445 6.77148 128 ft 2 kts 210°
2026-05-07 15:51 51.28452 6.77156 128 ft 1 kts 231°
2026-05-07 15:51 51.28456 6.77166 128 ft 0 kts 233°
2026-05-07 15:51 51.28456 6.77165 128 ft 0 kts 233°
2026-05-07 15:56 51.28455 6.77163 128 ft 0 kts 233°
2026-05-07 15:56 51.28434 6.77118 128 ft 12 kts 232°
2026-05-07 15:56 51.28353 6.76947 128 ft 20 kts 234°
2026-05-07 15:56 51.28359 6.76734 127 ft 19 kts 295°
2026-05-07 15:57 51.28392 6.76577 126 ft 18 kts 235°
2026-05-07 15:57 51.28314 6.76411 125 ft 18 kts 233°
2026-05-07 15:57 51.28237 6.76246 124 ft 19 kts 233°
2026-05-07 15:57 51.28155 6.76078 123 ft 19 kts 232°
2026-05-07 15:58 51.28075 6.75910 123 ft 19 kts 233°
2026-05-07 15:58 51.27994 6.75738 123 ft 19 kts 233°
2026-05-07 15:58 51.27915 6.75572 123 ft 18 kts 233°
2026-05-07 15:58 51.27843 6.75416 123 ft 12 kts 241°
2026-05-07 15:59 51.27875 6.75324 123 ft 10 kts 330°
2026-05-07 15:59 51.27889 6.75312 122 ft 0 kts 333°
2026-05-07 16:00 51.27890 6.75311 123 ft 0 kts 333°
2026-05-07 16:00 51.27901 6.75303 122 ft 2 kts 333°
2026-05-07 16:00 51.27926 6.75282 122 ft 6 kts 333°
2026-05-07 16:00 51.27959 6.75261 122 ft 8 kts 354°
2026-05-07 16:01 51.28033 6.75349 122 ft 12 kts 52°
2026-05-07 16:01 51.28211 6.75726 122 ft 76 kts 53°
2026-05-07 16:01 51.28659 6.76660 127 ft 133 kts 53°
2026-05-07 16:01 51.29300 6.78017 295 ft 163 kts 53°
2026-05-07 16:02 51.29995 6.79464 811 ft 167 kts 51°
2026-05-07 16:02 51.30356 6.80225 1106 ft 169 kts 52°
2026-05-07 16:02 51.30496 6.80524 1230 ft 170 kts 52°
2026-05-07 16:02 51.31198 6.82008 1883 ft 170 kts 52°
2026-05-07 16:03 51.31927 6.83552 2343 ft 183 kts 52°
2026-05-07 16:03 51.32724 6.85234 2671 ft 200 kts 52°
2026-05-07 16:03 51.33596 6.87092 2986 ft 221 kts 53°
2026-05-07 16:03 51.34518 6.89153 3396 ft 238 kts 54°
2026-05-07 16:04 51.35235 6.91634 3805 ft 258 kts 78°
2026-05-07 16:04 51.35198 6.94533 4469 ft 265 kts 97°
2026-05-07 16:04 51.34886 6.97428 4885 ft 266 kts 98°
2026-05-07 16:04 51.34564 7.00327 4975 ft 266 kts 98°
2026-05-07 16:05 51.34250 7.03257 5081 ft 272 kts 97°
2026-05-07 16:05 51.33937 7.06267 5815 ft 275 kts 97°
2026-05-07 16:05 51.33632 7.09238 6713 ft 273 kts 97°
2026-05-07 16:05 51.33331 7.12226 7485 ft 277 kts 97°
2026-05-07 16:06 51.33050 7.14983 8166 ft 281 kts 99°
2026-05-07 16:06 51.32426 7.17893 8884 ft 286 kts 119°
2026-05-07 16:06 51.31148 7.20498 9660 ft 289 kts 134°
2026-05-07 16:06 51.29798 7.22614 10358 ft 292 kts 136°
2026-05-07 16:07 51.29137 7.23624 10593 ft 297 kts 136°